Dewpoint
54 56 57 58 59 58 60 59 58 52 49 47 47 45 43 40 38 37 36 36 35 35 34 33 33 33 33 33 33 32 30 30 29 28 29 28 29 28 29 31 30 28 30
47 49 53 55 55 56 57 55 51 48 46 46 44 42 40 38 36 35 34 34 33 32 33 32 32 31 32 32 32 30 30 29 30 29 28 28 28 29 29 29 29 29 30
45 46 49 53 54 55 52 49 47 45 44 43 41 40 38 36 35 37 32 33 32 32 31 31 30 30 30 30 31 30 31 29 30 29 28 29 28 28 27 27 27 27 29
45 45 45 48 49 50 48 45 43 42 40 38 38 37 36 34 34 33 31 32 32 32 32 31 29 29 30 30 30 30 31 30 30 29 28 27 26 28 26 26 25 25 26
44 44 44 44 45 45 42 42 40 39 39 37 35 33 34 32 31 30 30 31 31 31 31 30 30 30 32 32 30 31 31 30 29 29 28 26 27 27 26 26 25 23 22
42 42 43 42 39 37 35 35 35 34 34 33 32 31 32 31 35 35 32 30 30 30 29 29 30 30 32 34 33 33 32 31 30 28 28 27 27 27 26 24 25 22 17
38 37 37 36 35 34 33 33 33 32 30 30 30 29 29 28 36 35 33 30 29 29 29 29 28 28 30 30 31 31 32 33 32 30 28 28 28 28 26 24 25 24 23
35 35 34 33 32 32 31 31 31 30 29 29 29 30 30 30 36 35 33 31 30 29 29 28 28 28 28 29 29 30 30 31 31 30 29 29 29 29 27 27 27 25 22
34 34 33 33 30 30 31 31 29 29 29 29 30 30 30 30 36 35 32 29 29 29 29 29 28 28 29 31 30 29 30 31 32 31 31 31 31 31 30 28 18 14 10
33 33 33 32 31 29 29 30 29 30 29 28 30 31 31 32 35 34 31 29 28 28 29 29 30 30 31 31 30 30 29 29 29 27 28 29 29 28 29 26 21 12 10
32 31 29 29 28 28 28 27 27 29 29 29 29 30 31 32 33 34 32 29 28 28 28 28 29 31 32 32 32 31 30 30 30 29 28 26 27 27 27 25 23 20 11
29 28 27 25 28 28 27 26 29 29 29 29 29 28 29 31 33 34 33 30 30 28 28 28 29 31 33 32 31 33 32 31 29 27 25 25 26 26 27 27 27 22 19
25 24 23 25 26 27 26 24 28 29 28 27 27 26 26 28 30 34 34 32 31 30 30 30 31 31 32 32 32 33 31 31 29 27 26 25 26 27 25 24 23 15 14
23 23 24 23 24 24 26 26 25 25 25 27 26 26 26 25 27 31 32 33 32 32 31 31 31 31 31 31 30 32 31 31 29 27 26 25 25 23 22 21 17 16 10
24 23 23 23 22 22 23 23 24 23 25 23 24 26 26 24 25 27 31 31 32 31 31 30 29 29 28 28 28 29 28 28 28 27 25 24 24 21 19 17 14 10 8
24 23 22 22 21 21 21 21 26 27 27 28 29 26 25 27 26 28 30 31 32 33 30 28 27 27 26 26 26 27 28 27 26 24 23 22 21 20 19 15 13 13 11
20 21 20 21 20 19 19 18 17 21 25 25 26 28 28 29 31 31 30 30 31 32 30 28 27 27 27 27 26 26 25 26 25 23 22 22 20 19 18 17 15 12 9
17 19 17 17 17 17 17 17 16 16 16 17 23 26 27 28 30 30 31 31 29 30 30 29 28 28 27 27 26 25 25 25 23 22 21 20 19 18 15 14 13 9 8
15 15 14 14 14 15 15 15 14 14 14 14 17 22 24 28 29 30 31 30 29 29 29 29 29 28 28 28 27 27 26 25 23 21 20 19 18 16 15 14 13 12 8
12 15 13 11 12 12 13 17 20 16 18 16 18 16 16 22 26 27 28 29 29 28 28 28 29 29 29 28 27 26 25 24 21 18 18 17 16 15 15 13 12 10 8
7 9 11 9 10 7 7 9 13 20 21 21 22 24 26 24 24 24 26 28 28 29 28 29 29 28 26 25 24 22 22 22 21 19 17 16 15 13 13 12 12 11 8
3 2 2 2 3 4 3 4 4 4 4 6 10 10 21 20 18 22 25 26 27 29 30 29 29 26 25 23 21 20 19 18 18 16 15 15 13 12 11 11 10 9 8
-1 -1 -1 1 -0 2 2 -0 1 1 1 2 5 8 6 3 6 7 11 19 18 17 19 20 21 20 19 19 19 19 18 17 17 17 15 13 12 11 10 9 8 8 6
-5 -4 -4 -4 -4 -4 -5 -3 -3 -0 -1 -2 -1 1 4 5 6 6 6 6 10 12 11 10 13 17 17 14 14 15 16 16 16 16 15 13 10 9 8 8 7 6 6
-7 -8 -9 -7 -9 -8 -6 -7 -6 -7 -6 -4 -3 -2 -2 0 2 2 3 3 5 7 4 4 4 3 5 9 7 7 10 13 13 12 12 11 9 7 7 6 6 5 5
-9 -9 -8 -10 -10 -11 -10 -9 -8 -7 -6 -3 -3 -1 -0 1 2 2 3 3 3 4 4 2 4 5 6 6 7 8 8 11 10 9 9 8 7 6 6 5 4 4 3
Lifted_Index
4 3 2 1 -1 -1 -1 -1 -1 -1 -1 -1 -1 -1 -1 -1 0 1 2 3 4 6 9 13 15 15 15 15 15 15 14 14 13 14 15 16 17 17 17 17 17 17 17
6 5 3 2 0 -1 -1 -1 -1 -1 -2 -1 -1 -1 -1 -1 -0 1 2 3 4 6 10 14 15 15 15 15 15 14 14 14 14 14 15 16 16 16 16 17 17 16 16
8 7 5 4 2 1 0 -0 -1 -1 -2 -1 -1 -1 -1 -1 -0 0 1 2 4 8 12 14 15 14 14 14 14 14 14 14 14 14 14 15 15 16 16 16 16 15 15
8 8 7 6 4 3 3 2 1 -0 -1 -1 -1 -1 -0 -0 -0 1 1 2 5 9 13 14 14 14 14 14 14 14 14 14 14 14 14 14 15 15 15 15 15 15 15
8 8 8 7 7 6 5 4 3 2 1 0 0 1 0 0 1 1 1 2 6 10 13 14 14 14 14 14 14 14 14 14 14 14 13 13 14 14 14 14 14 14 14
8 8 8 8 8 8 7 7 6 5 4 3 2 2 1 1 1 2 2 4 8 11 13 14 14 14 15 15 15 15 15 15 14 13 13 13 13 14 14 14 14 13 13
8 8 8 8 8 8 8 8 7 7 6 5 4 2 1 1 2 2 3 6 9 12 14 14 14 14 14 15 15 16 15 15 14 14 14 14 14 14 14 14 14 14 13
8 8 8 8 8 8 8 7 6 6 6 5 4 2 1 1 1 2 3 6 10 13 14 14 14 14 15 15 15 15 15 14 14 15 15 15 15 15 15 15 14 14 14
7 7 7 7 7 7 7 6 5 5 4 4 3 2 1 1 2 3 5 8 11 13 14 15 15 15 15 16 15 15 13 13 14 15 15 15 15 15 15 15 15 14 14
6 6 6 6 6 6 6 5 5 4 4 3 2 1 1 2 3 5 8 11 13 14 15 15 15 15 16 16 15 14 12 13 14 15 15 15 15 16 15 15 15 14 14
6 6 6 6 6 6 5 5 5 4 4 3 2 2 2 3 5 7 10 13 14 14 14 15 15 16 16 16 15 14 13 13 14 15 15 15 15 15 15 15 15 15 14
6 6 6 6 6 6 5 5 5 5 4 4 3 2 2 4 5 8 11 13 14 15 15 15 16 16 16 16 15 13 13 13 14 14 14 14 15 15 15 15 15 15 15
6 6 6 6 6 6 6 6 6 5 5 4 3 3 3 4 6 9 12 14 14 15 15 16 16 16 16 15 14 12 12 13 14 14 14 14 15 15 15 15 15 15 15
7 7 7 6 6 6 6 6 6 6 6 5 5 4 4 4 7 10 12 13 14 15 16 16 16 15 15 14 12 11 11 13 14 14 13 14 15 15 15 15 14 14 14
8 7 7 7 6 6 7 7 8 8 8 8 7 7 6 7 9 12 13 13 14 15 16 16 15 14 13 12 11 10 11 13 15 14 14 14 15 15 14 14 14 13 13
9 9 8 8 7 7 7 7 8 9 9 10 10 10 10 11 12 14 14 14 15 15 15 15 14 13 12 11 11 11 12 13 14 14 14 15 15 14 14 13 13 12 12
11 11 11 10 10 9 9 8 9 9 10 10 11 11 11 12 13 14 15 15 15 15 15 15 14 12 11 11 11 11 12 13 14 13 14 15 14 13 13 12 12 11 11
13 13 14 13 13 13 12 11 11 11 10 10 10 11 11 12 13 14 15 15 14 15 15 15 13 12 11 11 11 11 12 13 13 13 14 14 13 12 12 12 11 11 11
15 15 15 15 15 15 15 14 14 13 12 12 11 11 11 12 12 13 14 14 14 14 14 14 13 12 11 11 11 11 11 12 12 13 14 13 12 11 10 11 11 11 10
16 16 16 16 16 16 16 16 15 15 15 14 13 13 12 12 12 13 14 14 14 14 14 13 12 12 11 11 11 11 12 12 13 13 14 13 12 11 10 10 10 10 11
17 17 17 17 17 17 17 17 16 16 16 16 16 15 15 14 13 13 13 14 14 14 14 13 13 12 12 11 11 12 12 13 13 13 13 13 12 12 11 11 11 11 11
17 17 17 17 17 17 17 17 17 17 17 17 17 17 16 15 15 14 13 13 14 14 14 13 13 13 13 12 12 13 13 13 13 13 13 13 12 12 12 12 11 11 11
17 17 17 17 17 17 17 17 17 17 17 17 17 16 16 16 15 14 13 13 14 14 14 14 14 14 14 14 14 14 13 13 13 13 13 13 12 12 12 12 11 11 11
17 17 17 17 17 17 17 16 16 16 16 16 16 15 15 15 15 15 14 14 14 14 15 15 15 15 15 15 15 15 14 14 14 14 14 13 13 13 12 12 12 12 12
16 16 16 16 16 16 16 15 15 15 15 15 15 15 15 15 16 15 15 15 15 15 15 15 15 15 15 15 15 15 15 15 15 15 15 14 13 13 13 12 12 12 12
16 16 16 15 15 15 15 15 14 14 14 14 14 15 16 16 16 16 16 16 15 15 15 15 15 15 15 15 15 15 15 15 15 15 15 14 14 13 13 12 12 12 12